Искандар

Узбекистан     41°33′48″N   69°42′50″E
темп.,
°C
ветер,
м/с
пор.,
м/с
влажн.,
%
обл.,
%
осадки,
мм/ч
давл.,
гПа
погр.,
м
3 марта, ср
ср323:00+5в2265100 0.0 102425
02:00+4вюв2272100 0.1 102427
05:00+3юв2391100 0.8 1024196
08:00+3в1291100 0.0 102454
11:00+7ююв027396 0.1 1023525
14:00+9юз336475 0.5 1021872
17:00+8юз236245 1.2 1021666
20:00+5в227339 0.2 102224
4 марта, чт
чт423:00+5в336058 0.2 102244
02:00+4в346456 0.0 102146
05:00+4в346534 0.0 102037
08:00+5в346115 0.0 102050
11:00+11юв134657 0.0 1018910
14:00+12юз4748100 0.3 10161797
17:00+6вюв3486100 4.4 1017298
20:00+6вюв3379100 0.9 101961
5 марта, пт
пт523:00+3зсз3799100 5.3 1023530
02:00+2з4598100 7.2 1026367
05:00+1з1297100 11.2 1029167
08:00+1ююв119289 0.0 1031198
11:00+4св226556 0.0 1030479
14:00+7св11460 0.0 1027923
17:00+7всв12520 0.0 1025592
20:00+3всв44560 0.0 102565
6 марта, сб
сб623:00+2всв67410 0.0 102394
02:00+2всв664363 0.0 101997
05:00+3всв674681 0.0 1016102
08:00+4всв6843100 0.0 1014123
11:00+10св5644100 0.0 1010217
14:00+10ююз2341100 0.0 1011586
17:00+8зюз2252100 0.1 1011380
20:00+6св3367100 0.0 101358
7 марта, вс
вс723:00+5ююз0172100 0.0 101522
02:00+2ю1297100 3.4 1015177
05:00+2в1297100 8.2 101772
08:00+2ююв2497100 3.0 1018306
11:00+3юз2296100 4.3 1018201
14:00+3з1195100 0.2 1018182
17:00+5всв1177100 0.2 1018360
20:00+3всв2384100 0.0 101836